Facebook Twitter

Wetterstation Leibstadt

Messwerte
  Temperatur Wetter Niederschlag Luftdruck Wind
Fr, 05:00 Uhr 14° - 0.5 mm 1009.4 hPa 1 km/h W
Fr, 04:00 Uhr 14° - 0 mm 1009.4 hPa 1 km/h SO

Böen 10 km/h
Fr, 03:00 Uhr 14° - 0 mm 1009.8 hPa 3 km/h O

Böen 9 km/h
Fr, 02:00 Uhr 14° - 0 mm 1010.3 hPa 1 km/h O

Böen 22 km/h
Fr, 01:00 Uhr 13° - 0 mm 1010.9 hPa 0 km/h O

Böen 5 km/h
Fr, 00:00 Uhr 14° - 0 mm 1011 hPa 3 km/h NO

Böen 5 km/h
Do, 23:00 Uhr 15° - 0 mm 1011 hPa 3 km/h S

Böen 22 km/h
Do, 22:00 Uhr 16° - 0 mm 1010.7 hPa 4 km/h W
Do, 21:00 Uhr 18° - 0 mm 1010.3 hPa 11 km/h W
Do, 20:00 Uhr 19° - 0 mm 1009.7 hPa 11 km/h W

Böen 27 km/h
Do, 19:00 Uhr 21° - 0 mm 1009.2 hPa 12 km/h W

Böen 27 km/h
Do, 18:00 Uhr 21° - 0 mm 1009.4 hPa 8 km/h W

Böen 23 km/h
Do, 17:00 Uhr 21° - 0 mm 1010.2 hPa 12 km/h SW
Do, 16:00 Uhr 19° - 0 mm 1010.6 hPa 13 km/h SW

Böen 24 km/h
Do, 15:00 Uhr 18° - 1.7 mm 1010.7 hPa 8 km/h W

Böen 21 km/h
Do, 14:00 Uhr 19° - 0.2 mm 1010.6 hPa 13 km/h SW

Böen 21 km/h
Do, 13:00 Uhr 20° - 0 mm 1010.7 hPa 4 km/h SO

Böen 10 km/h
Do, 12:00 Uhr 19° - 0 mm 1011.6 hPa 3 km/h NO

Böen 10 km/h
Do, 11:00 Uhr 17° - 0 mm 1012.4 hPa 2 km/h O
Do, 10:00 Uhr 16° - 0 mm 1012.6 hPa 3 km/h O

Alle Zeitangaben MESZ